QPF
0.00 0.00 0.00 0.00 0.00 0.00 0.00 0.00 0.00 0.00 0.00 0.00 0.00 0.00 0.00 0.00 0.01 0.01 0.00 0.00 0.00 0.00 0.00 0.01 0.01 0.02 0.02 0.02 0.02 0.02 0.01 0.01 0.00 0.00 0.01 0.01 0.01 0.01 0.01 0.02 0.01 0.01 0.01 0.01 0.01 0.01 0.01 0.03 0.03
0.00 0.00 0.00 0.00 0.00 0.00 0.00 0.00 0.00 0.00 0.00 0.00 0.00 0.00 0.00 0.00 0.00 0.00 0.00 0.00 0.00 0.00 0.00 0.00 0.01 0.02 0.02 0.02 0.02 0.02 0.01 0.01 0.00 0.00 0.01 0.01 0.01 0.01 0.01 0.01 0.01 0.01 0.01 0.01 0.01 0.01 0.01 0.01 0.02
0.00 0.00 0.00 0.00 0.00 0.00 0.00 0.00 0.00 0.00 0.00 0.00 0.00 0.00 0.00 0.00 0.00 0.00 0.00 0.00 0.00 0.00 0.00 0.00 0.01 0.01 0.01 0.01 0.01 0.01 0.01 0.01 0.01 0.01 0.01 0.01 0.01 0.01 0.01 0.01 0.01 0.01 0.01 0.01 0.01 0.01 0.00 0.01 0.01
0.00 0.00 0.00 0.00 0.00 0.00 0.00 0.00 0.00 0.00 0.00 0.00 0.00 0.00 0.00 0.00 0.00 0.00 0.01 0.01 0.00 0.00 0.00 0.00 0.01 0.01 0.01 0.01 0.01 0.01 0.01 0.01 0.01 0.01 0.00 0.01 0.01 0.01 0.01 0.01 0.01 0.01 0.01 0.01 0.01 0.01 0.01 0.01 0.01
0.00 0.00 0.00 0.00 0.00 0.00 0.00 0.00 0.00 0.00 0.00 0.00 0.00 0.00 0.00 0.00 0.00 0.01 0.01 0.01 0.00 0.00 0.00 0.01 0.01 0.01 0.01 0.01 0.01 0.01 0.01 0.01 0.00 0.00 0.00 0.01 0.01 0.01 0.02 0.01 0.01 0.01 0.02 0.02 0.01 0.02 0.02 0.02 0.03
0.00 0.00 0.00 0.00 0.00 0.00 0.00 0.00 0.00 0.00 0.00 0.00 0.00 0.00 0.00 0.00 0.00 0.01 0.02 0.01 0.01 0.01 0.01 0.02 0.02 0.01 0.01 0.01 0.01 0.01 0.01 0.01 0.00 0.00 0.01 0.01 0.01 0.02 0.02 0.02 0.01 0.01 0.01 0.01 0.01 0.01 0.02 0.03 0.04
0.00 0.00 0.00 0.00 0.00 0.00 0.00 0.00 0.00 0.00 0.00 0.00 0.00 0.00 0.00 0.00 0.01 0.02 0.02 0.02 0.01 0.02 0.03 0.03 0.03 0.02 0.02 0.02 0.01 0.01 0.01 0.01 0.00 0.00 0.01 0.01 0.02 0.02 0.02 0.02 0.01 0.01 0.01 0.01 0.01 0.01 0.01 0.03 0.04
0.00 0.00 0.00 0.00 0.00 0.00 0.00 0.00 0.00 0.00 0.00 0.00 0.00 0.00 0.00 0.00 0.01 0.02 0.03 0.04 0.04 0.03 0.04 0.05 0.04 0.04 0.03 0.02 0.01 0.01 0.01 0.01 0.01 0.01 0.01 0.02 0.02 0.01 0.01 0.02 0.01 0.01 0.01 0.01 0.01 0.01 0.02 0.03 0.04
0.00 0.00 0.00 0.00 0.00 0.00 0.00 0.00 0.00 0.00 0.00 0.00 0.00 0.00 0.00 0.00 0.01 0.02 0.03 0.06 0.09 0.10 0.08 0.08 0.06 0.05 0.04 0.03 0.02 0.02 0.02 0.02 0.01 0.02 0.02 0.02 0.03 0.01 0.02 0.01 0.01 0.01 0.00 0.01 0.01 0.01 0.02 0.02 0.03
0.00 0.00 0.00 0.00 0.00 0.00 0.00 0.00 0.00 0.00 0.00 0.00 0.00 0.00 0.01 0.01 0.01 0.01 0.02 0.04 0.07 0.09 0.11 0.11 0.07 0.05 0.05 0.04 0.05 0.06 0.04 0.03 0.03 0.03 0.03 0.04 0.03 0.02 0.01 0.02 0.01 0.01 0.01 0.01 0.01 0.01 0.01 0.02 0.02
0.00 0.00 0.00 0.00 0.00 0.00 0.00 0.00 0.00 0.00 0.00 0.00 0.00 0.00 0.01 0.01 0.01 0.01 0.01 0.02 0.04 0.08 0.13 0.09 0.07 0.06 0.04 0.05 0.05 0.06 0.05 0.04 0.03 0.03 0.03 0.04 0.02 0.01 0.02 0.03 0.04 0.03 0.03 0.03 0.02 0.01 0.01 0.01 0.02
0.00 0.00 0.00 0.00 0.00 0.00 0.00 0.00 0.00 0.00 0.00 0.00 0.00 0.00 0.01 0.02 0.02 0.02 0.02 0.03 0.03 0.08 0.10 0.08 0.08 0.07 0.05 0.05 0.05 0.05 0.04 0.03 0.03 0.03 0.03 0.03 0.02 0.01 0.02 0.04 0.04 0.04 0.04 0.04 0.02 0.02 0.02 0.01 0.01
0.00 0.00 0.00 0.00 0.00 0.00 0.00 0.00 0.00 0.00 0.00 0.00 0.00 0.00 0.01 0.02 0.02 0.03 0.04 0.06 0.05 0.08 0.09 0.08 0.08 0.07 0.06 0.06 0.06 0.04 0.04 0.03 0.03 0.03 0.03 0.03 0.02 0.02 0.02 0.03 0.04 0.03 0.04 0.04 0.03 0.01 0.01 0.01 0.01
0.00 0.00 0.00 0.00 0.00 0.00 0.00 0.00 0.00 0.00 0.00 0.00 0.01 0.03 0.02 0.03 0.02 0.03 0.07 0.08 0.09 0.11 0.11 0.08 0.08 0.08 0.09 0.08 0.07 0.06 0.05 0.04 0.04 0.03 0.04 0.04 0.03 0.03 0.03 0.03 0.04 0.03 0.03 0.03 0.02 0.02 0.02 0.02 0.02
0.00 0.00 0.00 0.00 0.00 0.00 0.00 0.00 0.00 0.00 0.00 0.00 0.02 0.05 0.04 0.05 0.04 0.02 0.05 0.09 0.10 0.14 0.14 0.11 0.10 0.10 0.11 0.09 0.07 0.06 0.06 0.05 0.04 0.04 0.05 0.04 0.03 0.04 0.05 0.04 0.04 0.03 0.02 0.02 0.02 0.03 0.02 0.02 0.01
0.00 0.00 0.00 0.00 0.00 0.00 0.00 0.00 0.00 0.00 0.00 0.00 0.01 0.03 0.05 0.06 0.04 0.04 0.04 0.10 0.14 0.17 0.16 0.15 0.13 0.11 0.12 0.10 0.07 0.06 0.06 0.06 0.06 0.07 0.07 0.06 0.06 0.06 0.06 0.04 0.04 0.03 0.02 0.02 0.03 0.02 0.02 0.02 0.02
0.00 0.00 0.00 0.00 0.00 0.00 0.00 0.00 0.00 0.00 0.00 0.00 0.01 0.02 0.04 0.04 0.02 0.03 0.05 0.09 0.15 0.17 0.16 0.15 0.15 0.13 0.11 0.11 0.09 0.06 0.06 0.07 0.08 0.07 0.07 0.07 0.07 0.07 0.07 0.06 0.06 0.04 0.03 0.02 0.02 0.01 0.02 0.03 0.03
0.00 0.00 0.00 0.00 0.00 0.00 0.00 0.00 0.00 0.00 0.00 0.01 0.01 0.02 0.02 0.01 0.01 0.03 0.04 0.08 0.13 0.16 0.19 0.18 0.15 0.12 0.11 0.12 0.09 0.07 0.07 0.08 0.09 0.07 0.08 0.08 0.07 0.06 0.06 0.06 0.05 0.04 0.03 0.03 0.03 0.03 0.02 0.02 0.02
0.00 0.00 0.00 0.00 0.00 0.00 0.00 0.00 0.00 0.00 0.00 0.00 0.01 0.01 0.01 0.01 0.03 0.03 0.04 0.06 0.09 0.12 0.18 0.20 0.18 0.14 0.11 0.10 0.07 0.06 0.07 0.08 0.09 0.09 0.08 0.09 0.07 0.06 0.07 0.05 0.05 0.05 0.04 0.06 0.05 0.04 0.03 0.02 0.01
0.00 0.00 0.00 0.00 0.00 0.00 0.00 0.00 0.00 0.00 0.00 0.00 0.00 0.01 0.01 0.02 0.03 0.03 0.05 0.06 0.07 0.10 0.16 0.20 0.20 0.18 0.14 0.11 0.08 0.07 0.09 0.10 0.10 0.11 0.11 0.09 0.08 0.06 0.05 0.06 0.06 0.06 0.06 0.06 0.06 0.05 0.04 0.02 0.01
0.00 0.00 0.00 0.00 0.00 0.00 0.00 0.00 0.00 0.00 0.00 0.00 0.00 0.00 0.01 0.01 0.02 0.03 0.03 0.06 0.05 0.07 0.13 0.16 0.16 0.19 0.17 0.16 0.14 0.11 0.12 0.10 0.08 0.09 0.09 0.08 0.06 0.05 0.05 0.06 0.07 0.06 0.04 0.05 0.05 0.04 0.04 0.03 0.02
0.00 0.00 0.00 0.00 0.00 0.00 0.00 0.00 0.00 0.00 0.00 0.00 0.00 0.00 0.00 0.01 0.01 0.02 0.03 0.05 0.05 0.05 0.10 0.14 0.17 0.18 0.18 0.16 0.13 0.11 0.10 0.09 0.08 0.09 0.08 0.07 0.06 0.06 0.05 0.06 0.06 0.06 0.04 0.04 0.03 0.03 0.03 0.03 0.03
0.00 0.00 0.00 0.00 0.00 0.00 0.00 0.00 0.00 0.00 0.00 0.00 0.00 0.00 0.00 0.00 0.01 0.02 0.04 0.05 0.07 0.08 0.11 0.17 0.18 0.19 0.17 0.16 0.14 0.12 0.11 0.12 0.12 0.10 0.07 0.07 0.06 0.06 0.04 0.04 0.05 0.05 0.05 0.04 0.03 0.03 0.02 0.02 0.03
0.00 0.00 0.00 0.00 0.00 0.00 0.00 0.00 0.00 0.00 0.00 0.00 0.00 0.00 0.00 0.00 0.02 0.03 0.04 0.06 0.07 0.08 0.11 0.16 0.15 0.17 0.15 0.14 0.14 0.13 0.11 0.11 0.11 0.08 0.06 0.05 0.04 0.04 0.03 0.03 0.04 0.05 0.05 0.04 0.03 0.02 0.02 0.02 0.02
0.00 0.00 0.00 0.00 0.00 0.00 0.00 0.00 0.00 0.00 0.00 0.00 0.00 0.00 0.00 0.00 0.02 0.04 0.06 0.06 0.04 0.04 0.06 0.09 0.14 0.15 0.12 0.11 0.12 0.12 0.11 0.12 0.12 0.09 0.07 0.06 0.04 0.03 0.04 0.03 0.04 0.04 0.04 0.03 0.02 0.02 0.01 0.01 0.01
0.00 0.00 0.00 0.00 0.00 0.00 0.00 0.00 0.00 0.00 0.00 0.00 0.00 0.00 0.00 0.00 0.01 0.03 0.07 0.09 0.06 0.05 0.04 0.05 0.11 0.14 0.10 0.09 0.10 0.13 0.10 0.11 0.10 0.09 0.07 0.05 0.04 0.05 0.07 0.06 0.04 0.03 0.02 0.02 0.02 0.02 0.02 0.01 0.02
0.00 0.00 0.00 0.00 0.00 0.00 0.00 0.00 0.00 0.00 0.00 0.00 0.00 0.00 0.00 0.00 0.01 0.01 0.03 0.07 0.08 0.06 0.05 0.04 0.09 0.11 0.08 0.08 0.09 0.11 0.09 0.10 0.09 0.08 0.06 0.05 0.05 0.05 0.07 0.05 0.03 0.03 0.02 0.02 0.02 0.02 0.02 0.02 0.02
0.00 0.00 0.00 0.00 0.01 0.01 0.00 0.00 0.00 0.00 0.00 0.00 0.00 0.00 0.00 0.00 0.00 0.01 0.01 0.03 0.05 0.05 0.05 0.05 0.07 0.09 0.08 0.06 0.07 0.07 0.07 0.08 0.08 0.07 0.05 0.04 0.04 0.04 0.05 0.04 0.03 0.02 0.01 0.01 0.02 0.02 0.02 0.03 0.02
0.00 0.00 0.00 0.00 0.00 0.01 0.00 0.00 0.00 0.00 0.00 0.00 0.00 0.00 0.00 0.00 0.00 0.00 0.01 0.01 0.02 0.02 0.03 0.03 0.04 0.07 0.07 0.07 0.07 0.07 0.06 0.06 0.06 0.05 0.05 0.04 0.05 0.04 0.04 0.02 0.02 0.02 0.02 0.02 0.02 0.02 0.03 0.03 0.02
0.00 0.00 0.00 0.00 0.00 0.00 0.00 0.00 0.00 0.00 0.00 0.00 0.00 0.00 0.00 0.00 0.00 0.00 0.01 0.01 0.01 0.01 0.01 0.02 0.02 0.04 0.05 0.05 0.06 0.07 0.06 0.05 0.05 0.04 0.04 0.04 0.04 0.03 0.04 0.04 0.03 0.02 0.02 0.02 0.03 0.02 0.02 0.03 0.02
MSLP
1009.13 1009.54 1009.98 1010.34 1010.55 1010.59 1010.46 1010.22 1009.96 1009.74 1009.63 1009.64 1009.74 1009.87 1009.98 1010.00 1009.91 1009.75 1009.58 1009.48 1009.54 1009.80 1010.29 1010.95 1011.70 1012.43 1013.05 1013.50 1013.75 1013.84 1013.85 1013.84 1013.92 1014.10 1014.41 1014.81 1015.22 1015.59 1015.86 1016.00 1016.01 1015.95 1015.87 1015.83 1015.85 1015.97 1016.15 1016.37 1016.58
1009.09 1009.56 1010.02 1010.36 1010.51 1010.46 1010.22 1009.87 1009.49 1009.18 1008.99 1008.94 1009.01 1009.13 1009.24 1009.28 1009.23 1009.12 1009.01 1008.98 1009.12 1009.47 1010.05 1010.81 1011.67 1012.50 1013.21 1013.74 1014.05 1014.19 1014.21 1014.20 1014.25 1014.41 1014.67 1015.01 1015.38 1015.71 1015.96 1016.08 1016.11 1016.07 1016.03 1016.03 1016.11 1016.26 1016.48 1016.72 1016.93
1009.10 1009.61 1010.06 1010.36 1010.43 1010.28 1009.94 1009.49 1009.02 1008.64 1008.41 1008.33 1008.39 1008.52 1008.66 1008.74 1008.74 1008.68 1008.63 1008.67 1008.87 1009.29 1009.93 1010.76 1011.68 1012.58 1013.36 1013.96 1014.34 1014.52 1014.58 1014.59 1014.63 1014.75 1014.97 1015.26 1015.58 1015.87 1016.08 1016.21 1016.25 1016.25 1016.26 1016.31 1016.43 1016.62 1016.86 1017.10 1017.29
1009.17 1009.69 1010.10 1010.33 1010.32 1010.08 1009.64 1009.11 1008.59 1008.17 1007.92 1007.86 1007.94 1008.11 1008.29 1008.43 1008.49 1008.49 1008.50 1008.58 1008.82 1009.27 1009.94 1010.78 1011.73 1012.66 1013.48 1014.13 1014.56 1014.80 1014.90 1014.94 1014.99 1015.10 1015.29 1015.54 1015.81 1016.07 1016.27 1016.40 1016.47 1016.51 1016.57 1016.66 1016.82 1017.03 1017.27 1017.49 1017.65
1009.30 1009.79 1010.14 1010.28 1010.17 1009.83 1009.33 1008.75 1008.20 1007.79 1007.56 1007.53 1007.66 1007.89 1008.13 1008.33 1008.46 1008.52 1008.57 1008.69 1008.95 1009.40 1010.05 1010.87 1011.79 1012.71 1013.54 1014.20 1014.68 1014.97 1015.12 1015.20 1015.28 1015.40 1015.58 1015.81 1016.07 1016.31 1016.50 1016.65 1016.75 1016.84 1016.94 1017.07 1017.25 1017.46 1017.68 1017.86 1017.97
1009.48 1009.89 1010.14 1010.17 1009.95 1009.54 1008.98 1008.38 1007.85 1007.47 1007.30 1007.32 1007.52 1007.81 1008.12 1008.39 1008.58 1008.69 1008.79 1008.93 1009.18 1009.60 1010.21 1010.98 1011.84 1012.71 1013.50 1014.16 1014.65 1014.98 1015.19 1015.33 1015.46 1015.61 1015.81 1016.05 1016.31 1016.55 1016.76 1016.93 1017.06 1017.19 1017.32 1017.48 1017.67 1017.86 1018.03 1018.16 1018.21
1009.64 1009.95 1010.07 1009.97 1009.65 1009.16 1008.58 1007.99 1007.50 1007.18 1007.07 1007.17 1007.44 1007.79 1008.16 1008.49 1008.73 1008.90 1009.02 1009.18 1009.42 1009.81 1010.35 1011.04 1011.81 1012.61 1013.35 1013.99 1014.48 1014.85 1015.11 1015.32 1015.51 1015.72 1015.97 1016.24 1016.51 1016.77 1017.00 1017.20 1017.36 1017.51 1017.67 1017.83 1018.01 1018.17 1018.29 1018.36 1018.36
1009.74 1009.91 1009.88 1009.66 1009.25 1008.70 1008.11 1007.55 1007.11 1006.86 1006.83 1007.00 1007.32 1007.73 1008.16 1008.53 1008.82 1009.02 1009.18 1009.35 1009.59 1009.94 1010.42 1011.02 1011.71 1012.42 1013.10 1013.70 1014.20 1014.59 1014.91 1015.19 1015.45 1015.73 1016.04 1016.35 1016.66 1016.95 1017.21 1017.42 1017.60 1017.77 1017.93 1018.09 1018.24 1018.36 1018.44 1018.45 1018.40
1009.71 1009.74 1009.57 1009.23 1008.74 1008.16 1007.57 1007.05 1006.68 1006.51 1006.54 1006.76 1007.13 1007.57 1008.03 1008.43 1008.76 1009.00 1009.20 1009.39 1009.63 1009.95 1010.39 1010.92 1011.53 1012.17 1012.78 1013.35 1013.84 1014.26 1014.63 1014.97 1015.31 1015.67 1016.03 1016.40 1016.75 1017.07 1017.35 1017.58 1017.77 1017.94 1018.09 1018.23 1018.36 1018.45 1018.48 1018.46 1018.38
1009.53 1009.43 1009.14 1008.70 1008.15 1007.56 1007.00 1006.53 1006.22 1006.11 1006.19 1006.45 1006.84 1007.30 1007.77 1008.19 1008.54 1008.83 1009.06 1009.29 1009.54 1009.87 1010.28 1010.77 1011.32 1011.89 1012.46 1012.99 1013.47 1013.91 1014.33 1014.73 1015.14 1015.56 1015.99 1016.40 1016.80 1017.14 1017.43 1017.67 1017.86 1018.02 1018.16 1018.29 1018.39 1018.45 1018.47 1018.43 1018.34
1009.23 1009.01 1008.63 1008.13 1007.55 1006.97 1006.44 1006.03 1005.78 1005.71 1005.82 1006.10 1006.49 1006.94 1007.41 1007.84 1008.22 1008.54 1008.82 1009.09 1009.38 1009.73 1010.14 1010.61 1011.12 1011.65 1012.18 1012.69 1013.16 1013.62 1014.06 1014.50 1014.96 1015.44 1015.91 1016.38 1016.80 1017.17 1017.48 1017.72 1017.91 1018.06 1018.18 1018.29 1018.37 1018.42 1018.44 1018.40 1018.33
1008.85 1008.56 1008.13 1007.59 1007.02 1006.47 1005.98 1005.62 1005.41 1005.37 1005.50 1005.76 1006.14 1006.57 1007.02 1007.46 1007.86 1008.22 1008.55 1008.87 1009.21 1009.59 1010.02 1010.49 1010.99 1011.50 1012.00 1012.49 1012.95 1013.41 1013.86 1014.33 1014.82 1015.33 1015.84 1016.33 1016.78 1017.17 1017.50 1017.74 1017.93 1018.07 1018.19 1018.28 1018.36 1018.41 1018.44 1018.43 1018.39
1008.50 1008.17 1007.71 1007.18 1006.63 1006.12 1005.68 1005.36 1005.18 1005.16 1005.27 1005.52 1005.86 1006.26 1006.70 1007.13 1007.55 1007.94 1008.32 1008.70 1009.09 1009.51 1009.96 1010.45 1010.95 1011.45 1011.93 1012.40 1012.85 1013.30 1013.75 1014.22 1014.72 1015.24 1015.77 1016.28 1016.75 1017.17 1017.50 1017.76 1017.95 1018.10 1018.21 1018.30 1018.38 1018.45 1018.49 1018.52 1018.53
1008.24 1007.90 1007.45 1006.96 1006.45 1005.99 1005.60 1005.31 1005.14 1005.11 1005.20 1005.41 1005.71 1006.09 1006.50 1006.93 1007.36 1007.79 1008.20 1008.62 1009.05 1009.50 1009.98 1010.47 1010.98 1011.48 1011.96 1012.41 1012.85 1013.28 1013.71 1014.17 1014.65 1015.17 1015.69 1016.22 1016.71 1017.14 1017.50 1017.79 1018.00 1018.15 1018.27 1018.36 1018.45 1018.54 1018.61 1018.68 1018.73
1008.12 1007.80 1007.39 1006.94 1006.49 1006.08 1005.72 1005.45 1005.28 1005.22 1005.28 1005.45 1005.72 1006.06 1006.46 1006.88 1007.32 1007.75 1008.19 1008.62 1009.07 1009.53 1010.02 1010.52 1011.03 1011.53 1012.01 1012.46 1012.89 1013.30 1013.71 1014.14 1014.60 1015.09 1015.61 1016.13 1016.63 1017.09 1017.49 1017.81 1018.05 1018.22 1018.36 1018.47 1018.56 1018.67 1018.77 1018.87 1018.96
1008.16 1007.86 1007.49 1007.10 1006.71 1006.34 1006.01 1005.75 1005.56 1005.47 1005.49 1005.62 1005.85 1006.16 1006.54 1006.95 1007.38 1007.82 1008.24 1008.67 1009.10 1009.55 1010.02 1010.52 1011.03 1011.54 1012.02 1012.49 1012.91 1013.32 1013.71 1014.11 1014.53 1015.00 1015.49 1016.01 1016.53 1017.01 1017.45 1017.81 1018.09 1018.30 1018.46 1018.58 1018.69 1018.80 1018.92 1019.05 1019.17
1008.28 1008.02 1007.71 1007.38 1007.04 1006.71 1006.40 1006.13 1005.91 1005.78 1005.76 1005.84 1006.04 1006.33 1006.69 1007.09 1007.50 1007.91 1008.30 1008.68 1009.07 1009.48 1009.92 1010.39 1010.90 1011.42 1011.93 1012.42 1012.87 1013.28 1013.67 1014.05 1014.45 1014.88 1015.35 1015.86 1016.38 1016.89 1017.36 1017.77 1018.10 1018.36 1018.54 1018.69 1018.81 1018.93 1019.05 1019.19 1019.33
1008.42 1008.19 1007.95 1007.69 1007.40 1007.11 1006.81 1006.52 1006.27 1006.09 1006.02 1006.06 1006.22 1006.49 1006.83 1007.21 1007.60 1007.96 1008.30 1008.62 1008.93 1009.27 1009.65 1010.10 1010.60 1011.13 1011.69 1012.22 1012.72 1013.17 1013.58 1013.96 1014.35 1014.75 1015.20 1015.68 1016.20 1016.73 1017.24 1017.69 1018.07 1018.37 1018.59 1018.76 1018.89 1019.01 1019.13 1019.27 1019.42
1008.48 1008.31 1008.14 1007.95 1007.73 1007.47 1007.17 1006.86 1006.57 1006.34 1006.21 1006.21 1006.34 1006.58 1006.91 1007.27 1007.62 1007.94 1008.20 1008.43 1008.66 1008.91 1009.22 1009.62 1010.12 1010.68 1011.29 1011.89 1012.47 1012.99 1013.44 1013.85 1014.23 1014.62 1015.04 1015.50 1016.01 1016.54 1017.07 1017.56 1017.99 1018.33 1018.59 1018.78 1018.92 1019.05 1019.17 1019.30 1019.46
1008.41 1008.33 1008.24 1008.14 1007.98 1007.76 1007.47 1007.13 1006.79 1006.50 1006.32 1006.27 1006.36 1006.59 1006.89 1007.23 1007.55 1007.82 1008.01 1008.15 1008.27 1008.43 1008.67 1009.02 1009.51 1010.10 1010.77 1011.47 1012.14 1012.75 1013.28 1013.72 1014.12 1014.50 1014.90 1015.34 1015.82 1016.34 1016.88 1017.40 1017.86 1018.24 1018.53 1018.75 1018.91 1019.04 1019.16 1019.29 1019.44
1008.22 1008.23 1008.26 1008.25 1008.17 1007.98 1007.69 1007.33 1006.93 1006.58 1006.33 1006.23 1006.29 1006.49 1006.79 1007.11 1007.41 1007.63 1007.76 1007.82 1007.85 1007.92 1008.08 1008.38 1008.85 1009.48 1010.22 1011.00 1011.78 1012.49 1013.10 1013.61 1014.04 1014.42 1014.79 1015.19 1015.65 1016.15 1016.68 1017.20 1017.68 1018.10 1018.43 1018.67 1018.85 1018.99 1019.12 1019.25 1019.40
1007.94 1008.07 1008.22 1008.32 1008.32 1008.17 1007.88 1007.48 1007.03 1006.60 1006.29 1006.13 1006.15 1006.33 1006.62 1006.95 1007.24 1007.44 1007.53 1007.53 1007.49 1007.48 1007.57 1007.82 1008.28 1008.92 1009.70 1010.57 1011.44 1012.25 1012.95 1013.52 1013.98 1014.36 1014.72 1015.08 1015.50 1015.96 1016.46 1016.98 1017.48 1017.91 1018.27 1018.55 1018.76 1018.91 1019.05 1019.18 1019.33
1007.64 1007.90 1008.18 1008.40 1008.47 1008.36 1008.07 1007.63 1007.11 1006.60 1006.21 1005.99 1005.97 1006.14 1006.43 1006.78 1007.09 1007.30 1007.38 1007.36 1007.28 1007.21 1007.24 1007.45 1007.88 1008.51 1009.32 1010.24 1011.17 1012.06 1012.83 1013.45 1013.94 1014.33 1014.67 1015.00 1015.36 1015.78 1016.26 1016.76 1017.25 1017.70 1018.09 1018.39 1018.62 1018.80 1018.94 1019.08 1019.23
1007.39 1007.79 1008.20 1008.51 1008.66 1008.58 1008.27 1007.78 1007.18 1006.60 1006.13 1005.85 1005.79 1005.94 1006.25 1006.63 1006.99 1007.24 1007.37 1007.36 1007.27 1007.18 1007.17 1007.33 1007.72 1008.33 1009.13 1010.05 1011.01 1011.93 1012.74 1013.41 1013.92 1014.31 1014.62 1014.92 1015.24 1015.62 1016.05 1016.53 1017.01 1017.47 1017.87 1018.20 1018.46 1018.65 1018.81 1018.95 1019.09
1007.22 1007.74 1008.26 1008.66 1008.85 1008.79 1008.46 1007.92 1007.25 1006.59 1006.04 1005.69 1005.60 1005.75 1006.08 1006.51 1006.94 1007.27 1007.47 1007.52 1007.46 1007.38 1007.36 1007.49 1007.82 1008.38 1009.13 1010.02 1010.96 1011.88 1012.70 1013.37 1013.88 1014.27 1014.57 1014.83 1015.12 1015.45 1015.85 1016.30 1016.77 1017.22 1017.64 1017.98 1018.26 1018.47 1018.63 1018.77 1018.91
1007.12 1007.74 1008.33 1008.79 1009.02 1008.95 1008.60 1008.01 1007.28 1006.54 1005.92 1005.52 1005.40 1005.54 1005.91 1006.40 1006.91 1007.35 1007.65 1007.79 1007.81 1007.77 1007.76 1007.86 1008.15 1008.64 1009.31 1010.13 1011.02 1011.89 1012.67 1013.32 1013.82 1014.19 1014.48 1014.72 1014.98 1015.28 1015.65 1016.07 1016.52 1016.97 1017.39 1017.75 1018.04 1018.26 1018.43 1018.56 1018.69
1007.04 1007.72 1008.36 1008.84 1009.08 1009.00 1008.62 1007.99 1007.21 1006.41 1005.74 1005.30 1005.16 1005.30 1005.70 1006.25 1006.85 1007.40 1007.82 1008.09 1008.21 1008.24 1008.27 1008.37 1008.61 1009.03 1009.62 1010.34 1011.13 1011.92 1012.65 1013.25 1013.73 1014.08 1014.35 1014.58 1014.82 1015.10 1015.45 1015.85 1016.29 1016.73 1017.15 1017.51 1017.80 1018.03 1018.20 1018.33 1018.44
1006.93 1007.62 1008.27 1008.75 1008.97 1008.88 1008.47 1007.82 1007.01 1006.19 1005.49 1005.03 1004.86 1005.01 1005.43 1006.03 1006.71 1007.36 1007.90 1008.29 1008.53 1008.67 1008.76 1008.88 1009.10 1009.46 1009.97 1010.59 1011.27 1011.96 1012.61 1013.15 1013.59 1013.92 1014.18 1014.40 1014.64 1014.91 1015.25 1015.64 1016.06 1016.49 1016.91 1017.27 1017.57 1017.79 1017.96 1018.09 1018.20
1006.74 1007.41 1008.02 1008.46 1008.66 1008.55 1008.14 1007.49 1006.69 1005.87 1005.18 1004.71 1004.53 1004.67 1005.09 1005.71 1006.44 1007.16 1007.80 1008.31 1008.67 1008.91 1009.09 1009.26 1009.49 1009.82 1010.26 1010.79 1011.37 1011.97 1012.52 1013.00 1013.39 1013.70 1013.96 1014.18 1014.42 1014.70 1015.03 1015.42 1015.83 1016.26 1016.67 1017.03 1017.32 1017.56 1017.73 1017.86 1017.96
1006.49 1007.10 1007.64 1008.02 1008.17 1008.05 1007.65 1007.03 1006.27 1005.50 1004.83 1004.37 1004.20 1004.32 1004.71 1005.32 1006.04 1006.80 1007.49 1008.08 1008.54 1008.89 1009.16 1009.40 1009.67 1010.00 1010.40 1010.87 1011.38 1011.89 1012.37 1012.79 1013.14 1013.43 1013.68 1013.91 1014.16 1014.45 1014.79 1015.17 1015.59 1016.01 1016.41 1016.77 1017.07 1017.31 1017.49 1017.63 1017.75
Thickness
5817 5822 5823 5816 5806 5804 5799 5806 5813 5812 5814 5821 5820 5815 5808 5803 5795 5787 5807 5815 5811 5805 5795 5785 5781 5778 5776 5774 5773 5771 5769 5767 5765 5764 5763 5762 5761 5760 5759 5758 5757 5756 5755 5754 5753 5752 5751 5750 5749
5825 5824 5818 5813 5803 5795 5797 5810 5811 5815 5821 5823 5819 5814 5809 5806 5809 5806 5809 5810 5808 5803 5795 5787 5779 5776 5774 5772 5770 5768 5767 5765 5764 5762 5761 5760 5759 5758 5757 5756 5755 5754 5753 5752 5751 5750 5748 5748 5747
5825 5823 5814 5810 5802 5800 5802 5814 5816 5821 5825 5820 5815 5815 5810 5806 5807 5807 5810 5809 5806 5800 5794 5785 5778 5774 5772 5770 5768 5766 5765 5763 5762 5760 5759 5758 5757 5756 5755 5754 5753 5752 5751 5750 5749 5748 5746 5745 5745
5823 5817 5813 5805 5802 5811 5814 5819 5823 5819 5819 5821 5817 5810 5811 5811 5811 5811 5810 5808 5803 5797 5792 5783 5776 5772 5770 5768 5766 5764 5762 5761 5760 5758 5757 5756 5755 5754 5753 5752 5751 5750 5749 5747 5746 5745 5744 5743 5743
5821 5813 5804 5802 5806 5815 5822 5826 5826 5819 5816 5819 5816 5808 5804 5809 5814 5811 5807 5805 5800 5796 5791 5781 5774 5770 5768 5765 5764 5762 5760 5759 5758 5756 5755 5754 5753 5752 5751 5750 5749 5748 5746 5745 5744 5743 5742 5741 5741
5813 5810 5800 5801 5806 5814 5824 5829 5826 5821 5819 5819 5815 5807 5802 5808 5808 5806 5805 5801 5799 5795 5789 5778 5770 5767 5765 5763 5761 5760 5758 5757 5756 5754 5753 5752 5751 5750 5749 5747 5746 5745 5744 5743 5741 5741 5740 5739 5739
5808 5805 5802 5805 5805 5809 5819 5829 5824 5820 5816 5819 5820 5807 5801 5802 5805 5805 5801 5798 5796 5792 5786 5777 5771 5765 5762 5760 5759 5757 5756 5755 5753 5752 5751 5750 5749 5747 5746 5745 5743 5742 5741 5740 5739 5738 5737 5737 5737
5816 5807 5803 5805 5803 5808 5822 5826 5827 5823 5818 5826 5821 5807 5800 5800 5804 5801 5796 5793 5790 5787 5783 5777 5772 5767 5763 5759 5756 5755 5753 5752 5751 5750 5749 5748 5746 5745 5744 5742 5741 5740 5739 5738 5737 5736 5735 5735 5735
5812 5798 5801 5807 5807 5812 5823 5820 5825 5830 5823 5818 5819 5816 5812 5806 5801 5794 5787 5784 5781 5780 5778 5776 5771 5766 5763 5761 5756 5753 5751 5750 5749 5748 5746 5746 5747 5746 5743 5741 5738 5737 5736 5735 5734 5734 5734 5734 5734
5804 5797 5807 5816 5818 5818 5820 5819 5821 5818 5813 5810 5810 5809 5807 5801 5795 5788 5782 5779 5776 5774 5773 5773 5770 5766 5763 5761 5756 5754 5753 5750 5750 5749 5747 5747 5746 5745 5744 5738 5736 5735 5734 5733 5732 5732 5733 5735 5737
5805 5802 5812 5817 5822 5821 5819 5820 5823 5815 5809 5813 5810 5805 5800 5797 5791 5786 5782 5779 5776 5773 5770 5769 5766 5763 5762 5759 5756 5754 5753 5750 5749 5748 5746 5745 5744 5743 5742 5739 5735 5734 5733 5734 5732 5734 5736 5737 5736
5803 5807 5812 5815 5822 5818 5817 5819 5818 5817 5818 5824 5821 5812 5801 5795 5790 5786 5781 5777 5774 5770 5768 5767 5764 5761 5759 5758 5756 5754 5753 5750 5749 5746 5745 5744 5743 5742 5741 5738 5737 5735 5734 5733 5734 5733 5733 5733 5734
5799 5806 5813 5817 5819 5819 5818 5816 5815 5817 5823 5822 5817 5808 5799 5795 5791 5788 5783 5778 5772 5767 5764 5763 5760 5757 5755 5754 5753 5752 5751 5750 5748 5745 5743 5742 5742 5741 5739 5737 5735 5735 5734 5732 5732 5732 5731 5731 5731
5806 5807 5810 5815 5816 5817 5811 5814 5812 5815 5819 5813 5807 5801 5798 5794 5790 5785 5779 5774 5770 5766 5763 5761 5756 5754 5752 5750 5749 5749 5749 5747 5746 5744 5742 5740 5740 5739 5737 5734 5733 5733 5732 5732 5731 5731 5730 5731 5731
5805 5799 5805 5813 5814 5814 5810 5803 5809 5817 5813 5806 5802 5799 5795 5791 5787 5783 5779 5773 5770 5765 5762 5758 5754 5752 5749 5746 5745 5746 5745 5744 5744 5742 5739 5738 5737 5736 5734 5734 5733 5732 5730 5728 5729 5729 5729 5730 5730
5798 5793 5791 5807 5810 5811 5801 5796 5812 5816 5808 5801 5799 5796 5791 5787 5785 5782 5778 5773 5769 5764 5759 5755 5753 5749 5746 5744 5742 5743 5743 5742 5741 5740 5738 5736 5735 5734 5732 5733 5732 5730 5730 5729 5729 5730 5730 5729 5730
5787 5785 5790 5798 5808 5806 5801 5798 5809 5812 5805 5798 5795 5793 5787 5783 5780 5779 5775 5771 5766 5762 5756 5751 5749 5746 5743 5741 5739 5739 5739 5738 5738 5738 5737 5735 5733 5732 5731 5731 5730 5728 5729 5729 5730 5729 5730 5728 5727
5782 5786 5787 5790 5802 5800 5797 5800 5806 5807 5802 5797 5793 5789 5783 5779 5776 5775 5772 5768 5763 5758 5753 5748 5745 5743 5741 5738 5736 5736 5736 5735 5735 5736 5735 5733 5732 5731 5731 5729 5727 5727 5728 5728 5728 5726 5726 5727 5726
5784 5781 5782 5790 5800 5794 5794 5796 5802 5802 5798 5793 5790 5785 5781 5777 5777 5773 5768 5763 5758 5753 5749 5745 5741 5739 5737 5735 5734 5733 5733 5733 5733 5733 5732 5731 5731 5730 5729 5729 5726 5726 5727 5727 5727 5726 5724 5726 5726
5777 5774 5780 5789 5794 5791 5791 5793 5800 5799 5795 5793 5788 5784 5781 5776 5772 5767 5763 5758 5754 5750 5746 5743 5740 5738 5736 5735 5734 5733 5733 5732 5731 5731 5730 5730 5729 5728 5729 5728 5727 5726 5725 5725 5724 5724 5725 5726 5726
5774 5776 5779 5780 5788 5791 5786 5787 5791 5795 5795 5792 5789 5785 5782 5776 5769 5763 5759 5755 5752 5747 5744 5741 5738 5736 5734 5733 5731 5730 5728 5727 5727 5728 5728 5728 5728 5727 5728 5727 5727 5725 5726 5725 5724 5723 5723 5723 5725
5768 5784 5782 5779 5776 5781 5780 5773 5787 5791 5787 5786 5785 5783 5779 5775 5770 5764 5759 5754 5751 5748 5744 5740 5736 5734 5732 5730 5729 5728 5727 5726 5727 5727 5728 5727 5726 5726 5725 5725 5725 5724 5726 5724 5724 5725 5724 5723 5724
5777 5783 5781 5780 5777 5776 5780 5771 5786 5789 5781 5784 5785 5782 5779 5775 5770 5764 5760 5755 5751 5748 5743 5739 5735 5732 5731 5729 5729 5727 5727 5727 5727 5726 5725 5725 5725 5725 5724 5724 5724 5723 5725 5724 5723 5723 5723 5725 5725
5781 5776 5775 5777 5778 5761 5773 5767 5774 5788 5784 5785 5785 5782 5778 5775 5770 5765 5761 5757 5752 5748 5744 5740 5734 5730 5728 5727 5727 5726 5726 5725 5724 5723 5723 5723 5724 5724 5723 5723 5723 5723 5724 5722 5722 5722 5722 5724 5724
5774 5764 5753 5751 5754 5759 5775 5766 5774 5789 5791 5787 5784 5782 5779 5774 5769 5763 5759 5754 5751 5747 5743 5739 5733 5728 5727 5726 5725 5725 5725 5725 5724 5723 5722 5723 5723 5723 5722 5724 5722 5722 5721 5721 5722 5721 5723 5722 5721
5770 5770 5752 5741 5747 5763 5767 5763 5781 5791 5790 5788 5786 5784 5778 5773 5769 5764 5759 5755 5751 5746 5742 5737 5732 5728 5726 5725 5724 5725 5725 5725 5725 5724 5724 5723 5724 5725 5723 5722 5721 5721 5721 5722 5720 5722 5721 5720 5720
5767 5769 5781 5765 5763 5755 5766 5773 5783 5788 5784 5783 5782 5780 5776 5772 5768 5764 5760 5756 5752 5747 5742 5738 5733 5729 5727 5726 5725 5724 5725 5725 5726 5726 5725 5725 5725 5725 5723 5721 5720 5720 5720 5720 5720 5721 5719 5719 5720
5778 5777 5766 5757 5739 5738 5755 5762 5768 5777 5778 5779 5778 5777 5776 5773 5770 5765 5761 5756 5752 5748 5744 5741 5737 5732 5729 5728 5726 5726 5725 5726 5726 5726 5725 5726 5725 5724 5722 5721 5720 5720 5719 5719 5719 5719 5719 5718 5718
5762 5763 5764 5764 5759 5744 5740 5759 5782 5779 5780 5778 5779 5779 5777 5774 5771 5767 5763 5759 5754 5750 5745 5741 5738 5734 5731 5730 5728 5728 5727 5727 5727 5726 5726 5725 5724 5723 5722 5721 5720 5720 5719 5719 5718 5720 5718 5716 5716
5768 5766 5762 5748 5746 5752 5750 5760 5787 5783 5782 5781 5780 5778 5778 5775 5773 5769 5764 5760 5755 5750 5746 5742 5740 5737 5735 5733 5731 5729 5729 5728 5727 5727 5726 5725 5724 5723 5723 5722 5721 5720 5719 5718 5717 5717 5717 5716 5715